• En España
  • Lista de países
  • Para 7 días
  • Temperatura del agua
  • Mapa Satelital
  • El tiempo en el mapa
  • Informadores
  • user-avatar
    Iniciar sesión

    Tiempo cada hora Kievka

    Hoy, 25 Septiembre, Martes

    Tiempo Temperatura Precipitaciones Viento Presión Humedad
    00:00 +6°C° 1.6 mm 4 mps 732 mmHg 94%
    01:00 +6°C° 1.6 mm 4 mps 731 mmHg 95%
    02:00 +6°C° 1.6 mm 4 mps 731 mmHg 95%
    03:00 +6°C° 1.7 mm 4 mps 730 mmHg 95%
    04:00 +6°C° 1.7 mm 5 mps 730 mmHg 94%
    05:00 +6°C° 1.7 mm 5 mps 730 mmHg 94%
    06:00 +6°C° 1.1 mm 5 mps 731 mmHg 93%
    07:00 +5°C° 1.1 mm 6 mps 731 mmHg 92%
    08:00 +5°C° 1.1 mm 6 mps 732 mmHg 91%
    09:00 +5°C° 0.6 mm 6 mps 732 mmHg 90%
    10:00 +5°C° 0.6 mm 6 mps 733 mmHg 89%
    11:00 +5°C° 0.6 mm 7 mps 734 mmHg 88%
    12:00 +5°C° 0.5 mm 7 mps 735 mmHg 86%
    13:00 +5°C° 0.5 mm 7 mps 735 mmHg 85%
    14:00 +5°C° 0.5 mm 7 mps 736 mmHg 84%
    15:00 +5°C° 0.2 mm 6 mps 737 mmHg 83%
    16:00 +5°C° 0.2 mm 6 mps 738 mmHg 81%
    17:00 +5°C° 0.2 mm 6 mps 739 mmHg 80%
    18:00 +5°C° 0 mm 6 mps 740 mmHg 81%
    19:00 +5°C° 0 mm 5 mps 741 mmHg 81%
    20:00 +5°C° 0 mm 5 mps 742 mmHg 81%
    21:00 +3°C° 0 mm 5 mps 742 mmHg 81%
    22:00 +3°C° 0 mm 5 mps 743 mmHg 80%
    23:00 +2°C° 0 mm 5 mps 744 mmHg 80%

    Mañana, 26 Septiembre, Miércoles

    Tiempo Temperatura Precipitaciones Viento Presión Humedad
    00:00 +1°C° 0 mm 5 mps 745 mmHg 79%
    01:00 +1°C° 0 mm 4 mps 746 mmHg 78%
    02:00 +1°C° 0 mm 4 mps 746 mmHg 77%
    03:00 0°C° 0 mm 4 mps 747 mmHg 78%
    04:00 0°C° 0 mm 4 mps 748 mmHg 78%
    05:00 0°C° 0 mm 3 mps 748 mmHg 79%
    06:00 +1°C° 0 mm 3 mps 748 mmHg 77%
    07:00 +2°C° 0 mm 3 mps 749 mmHg 74%
    08:00 +3°C° 0 mm 3 mps 749 mmHg 71%
    09:00 +5°C° 0 mm 3 mps 749 mmHg 68%
    10:00 +6°C° 0 mm 4 mps 749 mmHg 65%
    11:00 +8°C° 0 mm 4 mps 749 mmHg 62%
    12:00 +10°C° 0 mm 4 mps 749 mmHg 60%
    13:00 +11°C° 0 mm 4 mps 748 mmHg 59%
    14:00 +10°C° 0 mm 5 mps 748 mmHg 57%
    15:00 +10°C° 0 mm 4 mps 747 mmHg 60%
    16:00 +10°C° 0 mm 4 mps 746 mmHg 62%
    17:00 +8°C° 0 mm 4 mps 746 mmHg 64%
    18:00 +7°C° 0.1 mm 5 mps 745 mmHg 66%
    19:00 +7°C° 0.1 mm 5 mps 744 mmHg 67%
    20:00 +7°C° 0.1 mm 6 mps 743 mmHg 68%
    21:00 +5°C° 1.1 mm 6 mps 741 mmHg 74%
    22:00 +5°C° 1.1 mm 7 mps 740 mmHg 80%
    23:00 +5°C° 1.1 mm 8 mps 738 mmHg 87%

    Pasado mañana, 27 Septiembre, Jueves

    Tiempo Temperatura Precipitaciones Viento Presión Humedad
    00:00 +5°C° 1.7 mm 7 mps 737 mmHg 88%
    01:00 +5°C° 1.7 mm 7 mps 736 mmHg 89%
    02:00 +5°C° 1.7 mm 6 mps 735 mmHg 90%
    03:00 +5°C° 1.1 mm 6 mps 734 mmHg 90%
    04:00 +6°C° 1.1 mm 5 mps 734 mmHg 90%
    05:00 +7°C° 1.1 mm 5 mps 733 mmHg 90%
    06:00 +7°C° 0.2 mm 5 mps 733 mmHg 86%
    07:00 +7°C° 0.2 mm 5 mps 733 mmHg 82%
    08:00 +7°C° 0.2 mm 5 mps 734 mmHg 79%
    09:00 +7°C° 0.2 mm 6 mps 734 mmHg 75%
    10:00 +8°C° 0.2 mm 6 mps 734 mmHg 71%
    11:00 +8°C° 0.2 mm 7 mps 734 mmHg 67%
    12:00 +8°C° 0.2 mm 7 mps 735 mmHg 65%
    13:00 +8°C° 0.2 mm 7 mps 735 mmHg 64%
    14:00 +8°C° 0.2 mm 7 mps 735 mmHg 62%
    15:00 +8°C° 0.1 mm 7 mps 735 mmHg 64%
    16:00 +7°C° 0.1 mm 6 mps 736 mmHg 67%
    17:00 +6°C° 0.1 mm 5 mps 736 mmHg 69%
    18:00 +6°C° 0 mm 5 mps 736 mmHg 70%
    19:00 +5°C° 0 mm 5 mps 737 mmHg 71%
    20:00 +5°C° 0 mm 5 mps 737 mmHg 73%
    21:00 +5°C° 0 mm 5 mps 737 mmHg 74%
    22:00 +3°C° 0 mm 5 mps 738 mmHg 75%
    23:00 +3°C° 0 mm 5 mps 738 mmHg 75%

    28 Septiembre, Viernes

    Tiempo Temperatura Precipitaciones Viento Presión Humedad
    00:00 +4°C° 0 mm 4 mps 738 mmHg 78%
    01:00 +3°C° 0 mm 4 mps 738 mmHg 80%
    02:00 +3°C° 0 mm 3 mps 738 mmHg 82%
    03:00 +3°C° 0 mm 3 mps 738 mmHg 83%
    04:00 +3°C° 0 mm 3 mps 738 mmHg 84%
    05:00 +3°C° 0 mm 3 mps 738 mmHg 85%
    06:00 +3°C° 0.8 mm 3 mps 737 mmHg 87%
    07:00 +4°C° 0.8 mm 2 mps 736 mmHg 90%
    08:00 +4°C° 0.8 mm 2 mps 735 mmHg 92%
    09:00 +5°C° 0.8 mm 2 mps 735 mmHg 91%
    10:00 +5°C° 0.8 mm 2 mps 734 mmHg 90%
    11:00 +5°C° 0.8 mm 2 mps 734 mmHg 89%
    12:00 +5°C° 0.4 mm 2 mps 735 mmHg 86%
    13:00 +5°C° 0.4 mm 3 mps 735 mmHg 83%
    14:00 +5°C° 0.4 mm 4 mps 736 mmHg 81%
    15:00 +4°C° 0.1 mm 4 mps 737 mmHg 80%
    16:00 +4°C° 0.1 mm 3 mps 738 mmHg 80%
    17:00 +3°C° 0.1 mm 3 mps 739 mmHg 79%
    18:00 +3°C° 0 mm 3 mps 740 mmHg 81%
    19:00 +2°C° 0 mm 3 mps 740 mmHg 82%
    20:00 +1°C° 0 mm 3 mps 741 mmHg 84%
    21:00 +1°C° 0 mm 3 mps 742 mmHg 85%
    22:00 +1°C° 0 mm 3 mps 742 mmHg 87%
    23:00 0°C° 0 mm 3 mps 743 mmHg 89%

    29 Septiembre, Sábado

    Tiempo Temperatura Precipitaciones Viento Presión Humedad
    00:00 +1°C° 0 mm 2 mps 743 mmHg 90%
    01:00 +1°C° 0 mm 2 mps 744 mmHg 91%
    02:00 -1°C° 0 mm 2 mps 744 mmHg 92%
    03:00 +1°C° 0.2 mm 2 mps 744 mmHg 91%
    04:00 +1°C° 0.2 mm 2 mps 745 mmHg 90%
    05:00 +3°C° 0.2 mm 1 mps 745 mmHg 90%
    06:00 +3°C° 0.2 mm 1 mps 745 mmHg 88%
    07:00 +4°C° 0.2 mm 1 mps 746 mmHg 86%
    08:00 +4°C° 0.2 mm 1 mps 746 mmHg 84%
    09:00 +5°C° 0 mm 1 mps 747 mmHg 78%
    10:00 +5°C° 0 mm 2 mps 747 mmHg 72%
    11:00 +6°C° 0 mm 2 mps 748 mmHg 66%
    12:00 +6°C° 0.1 mm 2 mps 748 mmHg 63%
    13:00 +7°C° 0.1 mm 3 mps 748 mmHg 61%
    14:00 +7°C° 0.1 mm 3 mps 748 mmHg 58%
    15:00 +5°C° 0 mm 3 mps 749 mmHg 64%
    16:00 +5°C° 0 mm 2 mps 749 mmHg 69%
    17:00 +3°C° 0 mm 2 mps 749 mmHg 75%
    18:00 +3°C° 0 mm 2 mps 750 mmHg 78%
    19:00 +3°C° 0 mm 1 mps 750 mmHg 80%
    20:00 +2°C° 0 mm 1 mps 750 mmHg 83%
    21:00 +2°C° 0 mm 1 mps 751 mmHg 84%
    22:00 -1°C° 0 mm 2 mps 751 mmHg 86%
    23:00 -1°C° 0 mm 2 mps 751 mmHg 87%

    30 Septiembre, Domingo

    Tiempo Temperatura Precipitaciones Viento Presión Humedad
    00:00 -1°C° 0 mm 2 mps 751 mmHg 88%
    01:00 -1°C° 0 mm 2 mps 751 mmHg 89%
    02:00 -1°C° 0 mm 2 mps 751 mmHg 90%
    03:00 -1°C° 0 mm 2 mps 751 mmHg 90%
    04:00 -1°C° 0 mm 2 mps 751 mmHg 90%
    05:00 -1°C° 0 mm 3 mps 751 mmHg 91%
    06:00 0°C° 0 mm 3 mps 751 mmHg 86%
    07:00 +1°C° 0 mm 3 mps 751 mmHg 82%
    08:00 +2°C° 0 mm 3 mps 751 mmHg 77%
    09:00 +4°C° 0 mm 4 mps 751 mmHg 73%
    10:00 +5°C° 0 mm 4 mps 751 mmHg 68%
    11:00 +7°C° 0 mm 4 mps 751 mmHg 63%
    12:00 +7°C° 0 mm 4 mps 751 mmHg 62%
    13:00 +7°C° 0 mm 4 mps 750 mmHg 61%
    14:00 +7°C° 0 mm 4 mps 750 mmHg 60%
    15:00 +6°C° 0 mm 4 mps 750 mmHg 63%
    16:00 +5°C° 0 mm 4 mps 749 mmHg 67%
    17:00 +4°C° 0 mm 3 mps 749 mmHg 70%
    18:00 +4°C° 0 mm 3 mps 749 mmHg 71%
    19:00 +3°C° 0 mm 4 mps 749 mmHg 72%
    20:00 +1°C° 0 mm 4 mps 749 mmHg 73%
    21:00 +1°C° 0 mm 4 mps 748 mmHg 74%
    22:00 +1°C° 0 mm 4 mps 748 mmHg 74%
    23:00 +1°C° 0 mm 4 mps 748 mmHg 75%
    Mostrar más